TOM95K LEMG-EGFF

Flight info

Callsign TOM95K
Flight time 2h 10m
Altitude 38000
Route BLN DCT MORAL DCT BEXID DCT VTB DCT SIE DCT XERMA DCT ARLUN DCT BUGIX DCT UNGAS DCT DELOG DCT NOVAN DCT TERKU DCT RUSIB DCT NOZHU DCT SHIRI DCT TOJAQ
Aircraft B738/M-SDE2E3FGHIRWXY/LB1

Departure

Time 2026-05-07 11:55
Airport Málaga-Costa del Sol Airport (LEMG)

Arrival

Time 2026-05-07 14:06
Airport Cardiff International Airport (EGFF)
Time Latitude Longitude Altitude Speed Heading
2026-05-07 11:21 36.67303 -4.49147 41 ft 0 kts 89°
2026-05-07 11:42 36.67303 -4.49152 41 ft 3 kts 90°
2026-05-07 11:42 36.67304 -4.49186 55 ft 4 kts 102°
2026-05-07 11:43 36.67314 -4.49216 40 ft 4 kts 130°
2026-05-07 11:43 36.67334 -4.49234 37 ft 4 kts 158°
2026-05-07 11:43 36.67355 -4.49252 40 ft 4 kts 132°
2026-05-07 11:43 36.67370 -4.49274 38 ft 1 kts 131°
2026-05-07 11:44 36.67371 -4.49274 38 ft 0 kts 131°
2026-05-07 11:47 36.67370 -4.49273 38 ft 1 kts 131°
2026-05-07 11:47 36.67347 -4.49242 39 ft 3 kts 139°
2026-05-07 11:47 36.67336 -4.49237 40 ft 1 kts 172°
2026-05-07 11:47 36.67326 -4.49239 37 ft 2 kts 198°
2026-05-07 11:48 36.67303 -4.49249 40 ft 5 kts 202°
2026-05-07 11:48 36.67273 -4.49291 41 ft 8 kts 259°
2026-05-07 11:48 36.67290 -4.49353 42 ft 8 kts 301°
2026-05-07 11:48 36.67323 -4.49404 42 ft 7 kts 320°
2026-05-07 11:49 36.67362 -4.49441 42 ft 7 kts 319°
2026-05-07 11:49 36.67400 -4.49488 42 ft 9 kts 313°
2026-05-07 11:49 36.67446 -4.49555 41 ft 11 kts 311°
2026-05-07 11:49 36.67505 -4.49633 42 ft 13 kts 309°
2026-05-07 11:50 36.67566 -4.49722 42 ft 15 kts 310°
2026-05-07 11:50 36.67642 -4.49827 42 ft 17 kts 312°
2026-05-07 11:50 36.67719 -4.49935 42 ft 16 kts 311°
2026-05-07 11:50 36.67793 -4.50039 43 ft 16 kts 312°
2026-05-07 11:51 36.67864 -4.50139 43 ft 15 kts 309°
2026-05-07 11:51 36.67933 -4.50234 44 ft 15 kts 312°
2026-05-07 11:51 36.67999 -4.50328 43 ft 14 kts 310°
2026-05-07 11:51 36.68065 -4.50419 43 ft 14 kts 311°
2026-05-07 11:52 36.68128 -4.50506 43 ft 13 kts 311°
2026-05-07 11:52 36.68186 -4.50589 43 ft 13 kts 313°
2026-05-07 11:52 36.68247 -4.50668 44 ft 12 kts 311°
2026-05-07 11:52 36.68301 -4.50750 45 ft 12 kts 310°
2026-05-07 11:53 36.68356 -4.50829 48 ft 12 kts 312°
2026-05-07 11:53 36.68410 -4.50905 49 ft 12 kts 310°
2026-05-07 11:53 36.68464 -4.50977 51 ft 11 kts 312°
2026-05-07 11:53 36.68529 -4.51027 52 ft 11 kts 338°
2026-05-07 11:54 36.68585 -4.51094 50 ft 12 kts 294°
2026-05-07 11:54 36.68547 -4.51174 54 ft 12 kts 219°
2026-05-07 11:54 36.68475 -4.51212 58 ft 11 kts 188°
2026-05-07 11:54 36.68413 -4.51200 60 ft 9 kts 141°
2026-05-07 11:55 36.68392 -4.51171 60 ft 2 kts 131°
2026-05-07 11:55 36.68272 -4.51005 55 ft 73 kts 131°
2026-05-07 11:55 36.67710 -4.50216 108 ft 163 kts 131°
2026-05-07 11:55 36.66862 -4.49049 926 ft 197 kts 132°
2026-05-07 11:56 36.65901 -4.47711 1809 ft 223 kts 131°
2026-05-07 11:56 36.64854 -4.46186 2712 ft 231 kts 131°
2026-05-07 11:56 36.63794 -4.44621 2886 ft 233 kts 131°
2026-05-07 11:56 36.62786 -4.43112 2986 ft 221 kts 131°
2026-05-07 11:57 36.61822 -4.41659 3100 ft 216 kts 131°
2026-05-07 11:57 36.60867 -4.40213 3227 ft 220 kts 131°
2026-05-07 11:57 36.59857 -4.38687 3405 ft 234 kts 131°
2026-05-07 11:57 36.58796 -4.37126 3498 ft 237 kts 137°
2026-05-07 11:58 36.57399 -4.36137 3621 ft 235 kts 169°
2026-05-07 11:58 36.55752 -4.36269 4058 ft 250 kts 202°
2026-05-07 11:58 36.54355 -4.37513 5102 ft 250 kts 231°
2026-05-07 11:58 36.53630 -4.39465 6185 ft 253 kts 259°
2026-05-07 11:59 36.53747 -4.41659 7156 ft 260 kts 287°
2026-05-07 11:59 36.54671 -4.43598 8180 ft 266 kts 312°
2026-05-07 11:59 36.56232 -4.44855 9192 ft 274 kts 339°
2026-05-07 11:59 36.58152 -4.45088 10181 ft 285 kts
2026-05-07 12:00 36.60050 -4.44309 11071 ft 292 kts 25°
2026-05-07 12:00 36.61806 -4.43075 11984 ft 296 kts 30°
2026-05-07 12:00 36.63558 -4.41691 12878 ft 300 kts 31°
2026-05-07 12:00 36.65335 -4.40259 13641 ft 312 kts 31°
2026-05-07 12:01 36.67238 -4.38735 13856 ft 339 kts 31°
2026-05-07 12:01 36.69308 -4.37098 14088 ft 364 kts 31°
2026-05-07 12:01 36.71481 -4.35394 14658 ft 374 kts 31°
2026-05-07 12:01 36.73702 -4.33665 15444 ft 378 kts 30°
2026-05-07 12:02 36.75948 -4.31925 16269 ft 381 kts 30°
2026-05-07 12:02 36.78185 -4.30197 17035 ft 386 kts 29°
2026-05-07 12:02 36.80484 -4.28419 17722 ft 392 kts 29°
2026-05-07 12:02 36.82813 -4.26620 18493 ft 395 kts 28°
2026-05-07 12:03 36.85164 -4.24810 19180 ft 398 kts 27°
2026-05-07 12:03 36.87537 -4.22982 19811 ft 403 kts 27°
2026-05-07 12:03 36.89934 -4.21134 20456 ft 407 kts 26°
2026-05-07 12:03 36.92352 -4.19266 21160 ft 410 kts 26°
2026-05-07 12:04 36.94790 -4.17379 21796 ft 414 kts 26°
2026-05-07 12:04 36.97222 -4.15496 22383 ft 418 kts 26°
2026-05-07 12:04 36.99704 -4.13572 23040 ft 422 kts 25°
2026-05-07 12:04 37.02211 -4.11629 23654 ft 425 kts 25°
2026-05-07 12:05 37.04735 -4.09669 24141 ft 428 kts 25°
2026-05-07 12:05 37.07271 -4.07697 24677 ft 430 kts 25°
2026-05-07 12:05 37.09817 -4.05716 25163 ft 432 kts 24°
2026-05-07 12:05 37.12380 -4.03722 25671 ft 435 kts 24°
2026-05-07 12:06 37.14958 -4.01714 26173 ft 438 kts 24°
2026-05-07 12:06 37.17567 -3.99736 26704 ft 437 kts 20°
2026-05-07 12:06 37.20318 -3.98206 27157 ft 429 kts 10°
2026-05-07 12:06 37.23131 -3.97136 27614 ft 429 kts
2026-05-07 12:07 37.26006 -3.96104 28090 ft 430 kts
2026-05-07 12:07 37.28892 -3.95075 28526 ft 432 kts
2026-05-07 12:07 37.31792 -3.94032 28982 ft 435 kts
2026-05-07 12:07 37.34711 -3.92968 29418 ft 438 kts
2026-05-07 12:08 37.37639 -3.91887 29813 ft 440 kts
2026-05-07 12:08 37.40588 -3.90790 30197 ft 443 kts
2026-05-07 12:08 37.43551 -3.89682 30514 ft 446 kts
2026-05-07 12:08 37.46497 -3.88577 30781 ft 449 kts
2026-05-07 12:09 37.49496 -3.87449 31135 ft 450 kts
2026-05-07 12:09 37.52491 -3.86322 31555 ft 448 kts
2026-05-07 12:09 37.55474 -3.85196 31999 ft 447 kts
2026-05-07 12:09 37.58457 -3.84071 32373 ft 448 kts
2026-05-07 12:10 37.61449 -3.82944 32731 ft 449 kts
2026-05-07 12:10 37.64451 -3.81814 33033 ft 452 kts
2026-05-07 12:10 37.67486 -3.80673 33181 ft 458 kts
2026-05-07 12:10 37.70513 -3.79534 33464 ft 461 kts
2026-05-07 12:11 37.73578 -3.78373 33939 ft 459 kts
2026-05-07 12:11 37.76625 -3.77216 34373 ft 456 kts
2026-05-07 12:11 37.79656 -3.76065 34707 ft 455 kts
2026-05-07 12:11 37.82695 -3.74914 34963 ft 457 kts
2026-05-07 12:12 37.85744 -3.73760 35236 ft 457 kts 10°
2026-05-07 12:12 37.88788 -3.72604 35593 ft 456 kts 10°
2026-05-07 12:12 37.91824 -3.71451 35908 ft 457 kts 11°
2026-05-07 12:12 37.94808 -3.70318 36094 ft 460 kts 11°
2026-05-07 12:13 37.97868 -3.69155 36378 ft 460 kts 11°
2026-05-07 12:13 38.00931 -3.67987 36716 ft 459 kts 11°
2026-05-07 12:13 38.03985 -3.66822 37017 ft 458 kts 11°
2026-05-07 12:13 38.07039 -3.65657 37293 ft 459 kts 11°
2026-05-07 12:14 38.10098 -3.64490 37565 ft 459 kts 11°
2026-05-07 12:14 38.13155 -3.63322 37868 ft 459 kts 11°
2026-05-07 12:14 38.16251 -3.62339 37878 ft 459 kts
2026-05-07 12:15 38.22594 -3.61653 37914 ft 457 kts 359°
2026-05-07 12:15 38.28888 -3.61132 37909 ft 456 kts 359°
2026-05-07 12:16 38.35202 -3.60563 37911 ft 454 kts 359°
2026-05-07 12:16 38.41493 -3.59958 37909 ft 453 kts 359°
2026-05-07 12:17 38.47767 -3.59343 37918 ft 451 kts 359°
2026-05-07 12:17 38.53973 -3.58734 37918 ft 450 kts 359°
2026-05-07 12:18 38.60213 -3.58123 37930 ft 450 kts 360°
2026-05-07 12:18 38.66454 -3.57511 37922 ft 450 kts 360°
2026-05-07 12:19 38.72704 -3.56897 37919 ft 451 kts 360°
2026-05-07 12:19 38.78926 -3.56284 37919 ft 452 kts 360°
2026-05-07 12:20 38.85207 -3.55665 37944 ft 454 kts
2026-05-07 12:20 38.91523 -3.55041 37927 ft 456 kts
2026-05-07 12:21 38.97865 -3.54412 37916 ft 458 kts
2026-05-07 12:21 39.04229 -3.53783 37916 ft 459 kts
2026-05-07 12:22 39.10371 -3.53178 37914 ft 461 kts
2026-05-07 12:22 39.16769 -3.52546 37913 ft 462 kts
2026-05-07 12:23 39.23217 -3.51908 37929 ft 469 kts
2026-05-07 12:23 39.29791 -3.51258 37922 ft 478 kts
2026-05-07 12:24 39.36423 -3.50598 37924 ft 484 kts
2026-05-07 12:24 39.43169 -3.49924 37912 ft 487 kts
2026-05-07 12:25 39.49924 -3.49248 37901 ft 485 kts
2026-05-07 12:25 39.56610 -3.48578 37913 ft 480 kts
2026-05-07 12:26 39.63222 -3.47912 37905 ft 480 kts
2026-05-07 12:26 39.69872 -3.47237 37908 ft 479 kts
2026-05-07 12:27 39.76519 -3.46562 37918 ft 479 kts
2026-05-07 12:27 39.83152 -3.46756 37909 ft 476 kts 352°
2026-05-07 12:28 39.89708 -3.47502 37903 ft 476 kts 352°
2026-05-07 12:28 39.96320 -3.48231 37904 ft 477 kts 352°
2026-05-07 12:29 40.02938 -3.48920 37902 ft 478 kts 353°
2026-05-07 12:29 40.09573 -3.49591 37911 ft 478 kts 353°
2026-05-07 12:30 40.16165 -3.50257 37898 ft 479 kts 353°
2026-05-07 12:30 40.22808 -3.50934 37918 ft 479 kts 353°
2026-05-07 12:31 40.29454 -3.51614 37910 ft 479 kts 353°
2026-05-07 12:31 40.36107 -3.52295 37917 ft 479 kts 353°
2026-05-07 12:32 40.42761 -3.52977 37921 ft 479 kts 353°
2026-05-07 12:32 40.49367 -3.53656 37912 ft 480 kts 353°
2026-05-07 12:33 40.59348 -3.54692 37912 ft 480 kts 353°
2026-05-07 12:33 40.66000 -3.55393 37936 ft 479 kts 353°
2026-05-07 12:34 40.72650 -3.56079 37931 ft 480 kts 353°
2026-05-07 12:34 40.79259 -3.56763 37931 ft 479 kts 353°
2026-05-07 12:35 40.85910 -3.57453 37943 ft 479 kts 353°
2026-05-07 12:35 40.92558 -3.58144 37930 ft 479 kts 353°
2026-05-07 12:36 40.98160 -3.58727 37926 ft 479 kts 353°
2026-05-07 12:36 41.04759 -3.59414 37930 ft 479 kts 353°
2026-05-07 12:37 41.11407 -3.60107 37938 ft 479 kts 353°
2026-05-07 12:37 41.18072 -3.60692 37918 ft 481 kts 356°
2026-05-07 12:38 41.24716 -3.60840 37922 ft 481 kts 357°
2026-05-07 12:38 41.31413 -3.60936 37921 ft 481 kts 357°
2026-05-07 12:39 41.38110 -3.61089 37909 ft 481 kts 356°
2026-05-07 12:39 41.44811 -3.61262 37911 ft 481 kts 356°
2026-05-07 12:40 41.51462 -3.61429 37919 ft 482 kts 357°
2026-05-07 12:40 41.58168 -3.61457 37901 ft 482 kts 358°
2026-05-07 12:41 41.64882 -3.61429 37902 ft 482 kts 358°
2026-05-07 12:41 41.71589 -3.61414 37904 ft 482 kts 358°
2026-05-07 12:42 41.78300 -3.61411 37901 ft 482 kts 358°
2026-05-07 12:42 41.84970 -3.61413 37900 ft 483 kts 358°
2026-05-07 12:43 41.91684 -3.61411 37899 ft 483 kts 358°
2026-05-07 12:43 41.98405 -3.61406 37904 ft 483 kts 358°
2026-05-07 12:44 42.05124 -3.61463 37902 ft 483 kts 355°
2026-05-07 12:44 42.11785 -3.61917 37904 ft 482 kts 354°
2026-05-07 12:45 42.18491 -3.62419 37902 ft 483 kts 354°
2026-05-07 12:45 42.25207 -3.62851 37918 ft 483 kts 355°
2026-05-07 12:46 42.31923 -3.63262 37910 ft 483 kts 355°
2026-05-07 12:46 42.38582 -3.63873 37914 ft 482 kts 350°
2026-05-07 12:47 42.45201 -3.65244 37910 ft 481 kts 348°
2026-05-07 12:47 42.51807 -3.66699 37915 ft 481 kts 348°
2026-05-07 12:48 42.58428 -3.68051 37921 ft 481 kts 349°
2026-05-07 12:48 42.65004 -3.69361 37909 ft 481 kts 349°
2026-05-07 12:49 42.71626 -3.70651 37903 ft 481 kts 350°
2026-05-07 12:49 42.78267 -3.71782 37905 ft 481 kts 350°
2026-05-07 12:50 42.84909 -3.72885 37900 ft 481 kts 350°
2026-05-07 12:50 42.91507 -3.73999 37901 ft 481 kts 350°
2026-05-07 12:51 42.98146 -3.75135 37899 ft 481 kts 350°
2026-05-07 12:51 43.04790 -3.76278 37902 ft 482 kts 350°
2026-05-07 12:52 43.10323 -3.77233 37895 ft 482 kts 350°
2026-05-07 12:52 43.18061 -3.78569 37904 ft 482 kts 350°
2026-05-07 12:53 43.24719 -3.79722 37893 ft 482 kts 350°
2026-05-07 12:53 43.30256 -3.80683 37882 ft 483 kts 350°
2026-05-07 12:54 43.36917 -3.81840 37897 ft 482 kts 350°
2026-05-07 12:54 43.44642 -3.83186 37887 ft 481 kts 350°
2026-05-07 12:55 43.50201 -3.84156 37881 ft 480 kts 350°
2026-05-07 12:55 43.56776 -3.85307 37902 ft 479 kts 350°
2026-05-07 12:56 43.63396 -3.86466 37909 ft 480 kts 350°
2026-05-07 12:56 43.70023 -3.87630 37909 ft 480 kts 350°
2026-05-07 12:57 43.76646 -3.88798 37927 ft 480 kts 349°
2026-05-07 12:57 43.83229 -3.89961 37920 ft 480 kts 349°
2026-05-07 12:58 43.89855 -3.91128 37928 ft 480 kts 349°
2026-05-07 12:58 43.96482 -3.92304 37938 ft 480 kts 350°
2026-05-07 12:59 44.03112 -3.93485 37934 ft 480 kts 350°
2026-05-07 12:59 44.09739 -3.94665 37937 ft 480 kts 350°
2026-05-07 13:00 44.16328 -3.95839 37961 ft 480 kts 350°
2026-05-07 13:00 44.22960 -3.97023 37949 ft 481 kts 350°
2026-05-07 13:01 44.29590 -3.98211 37949 ft 480 kts 350°
2026-05-07 13:01 44.36278 -3.98548 37962 ft 484 kts
2026-05-07 13:02 44.42935 -3.97574 37958 ft 485 kts
2026-05-07 13:02 44.49638 -3.96519 37957 ft 484 kts
2026-05-07 13:03 44.56340 -3.95524 37973 ft 484 kts
2026-05-07 13:03 44.63001 -3.94577 37961 ft 484 kts
2026-05-07 13:04 44.69700 -3.93633 37961 ft 484 kts
2026-05-07 13:04 44.76399 -3.92685 37967 ft 484 kts
2026-05-07 13:05 44.83098 -3.91733 37970 ft 484 kts
2026-05-07 13:05 44.89796 -3.90777 37970 ft 484 kts
2026-05-07 13:06 44.96444 -3.89826 37976 ft 484 kts
2026-05-07 13:06 45.03142 -3.88867 37975 ft 483 kts
2026-05-07 13:07 45.09834 -3.87905 37975 ft 483 kts
2026-05-07 13:07 45.16523 -3.86943 37975 ft 483 kts
2026-05-07 13:08 45.23165 -3.85984 37975 ft 483 kts
2026-05-07 13:08 45.29856 -3.85016 37973 ft 484 kts
2026-05-07 13:09 45.36556 -3.84045 37982 ft 484 kts
2026-05-07 13:09 45.43261 -3.83070 37984 ft 484 kts
2026-05-07 13:10 45.49924 -3.82100 37985 ft 485 kts
2026-05-07 13:10 45.56637 -3.81119 37990 ft 485 kts
2026-05-07 13:11 45.63347 -3.80136 37990 ft 485 kts
2026-05-07 13:11 45.70058 -3.79151 37989 ft 485 kts
2026-05-07 13:12 45.76775 -3.78163 37989 ft 485 kts
2026-05-07 13:12 45.83402 -3.77185 37994 ft 485 kts
2026-05-07 13:13 45.90114 -3.76193 37997 ft 485 kts
2026-05-07 13:13 45.96821 -3.75199 37999 ft 485 kts
2026-05-07 13:14 46.03531 -3.74201 37999 ft 484 kts
2026-05-07 13:14 46.10190 -3.73208 38000 ft 484 kts
2026-05-07 13:15 46.16889 -3.72207 37999 ft 484 kts
2026-05-07 13:15 46.23579 -3.71202 38000 ft 484 kts
2026-05-07 13:16 46.30274 -3.70196 38003 ft 483 kts
2026-05-07 13:16 46.36930 -3.69503 38012 ft 482 kts 360°
2026-05-07 13:17 46.43636 -3.69258 38006 ft 482 kts 359°
2026-05-07 13:17 46.50337 -3.69042 38008 ft 482 kts 359°
2026-05-07 13:18 46.57036 -3.68765 38006 ft 482 kts 360°
2026-05-07 13:18 46.63688 -3.68455 38008 ft 482 kts 360°
2026-05-07 13:19 46.70387 -3.68134 38008 ft 481 kts 360°
2026-05-07 13:19 46.77083 -3.67816 38014 ft 481 kts 360°
2026-05-07 13:20 46.83779 -3.67498 38008 ft 482 kts 360°
2026-05-07 13:20 46.90436 -3.67180 38004 ft 482 kts
2026-05-07 13:21 46.97139 -3.66847 38013 ft 482 kts
2026-05-07 13:21 47.03848 -3.66522 38010 ft 482 kts
2026-05-07 13:22 47.10559 -3.66202 38010 ft 483 kts
2026-05-07 13:22 47.17223 -3.65884 38013 ft 483 kts
2026-05-07 13:23 47.23942 -3.65561 38010 ft 483 kts
2026-05-07 13:23 47.30653 -3.65238 38010 ft 483 kts
2026-05-07 13:24 47.37365 -3.64913 38014 ft 483 kts
2026-05-07 13:24 47.44028 -3.64591 38010 ft 482 kts
2026-05-07 13:25 47.50740 -3.64265 38013 ft 482 kts
2026-05-07 13:25 47.57446 -3.63938 38023 ft 482 kts
2026-05-07 13:26 47.64147 -3.63612 38016 ft 482 kts
2026-05-07 13:26 47.70803 -3.63286 38019 ft 482 kts
2026-05-07 13:27 47.77503 -3.62957 38023 ft 481 kts
2026-05-07 13:27 47.84198 -3.62628 37996 ft 481 kts
2026-05-07 13:28 47.90892 -3.62299 37994 ft 481 kts
2026-05-07 13:28 47.97538 -3.61970 38011 ft 481 kts
2026-05-07 13:29 48.04225 -3.61803 37981 ft 480 kts 353°
2026-05-07 13:29 48.10834 -3.63030 37988 ft 478 kts 349°
2026-05-07 13:30 48.17418 -3.64494 37997 ft 478 kts 349°
2026-05-07 13:30 48.23965 -3.65884 37987 ft 478 kts 350°
2026-05-07 13:31 48.30564 -3.67222 37987 ft 478 kts 350°
2026-05-07 13:31 48.37160 -3.68545 37970 ft 479 kts 350°
2026-05-07 13:32 48.43763 -3.69874 37983 ft 479 kts 350°
2026-05-07 13:32 48.50366 -3.71210 37984 ft 478 kts 350°
2026-05-07 13:33 48.56919 -3.72540 37988 ft 478 kts 350°
2026-05-07 13:33 48.63518 -3.73883 37983 ft 478 kts 350°
2026-05-07 13:34 48.73414 -3.75904 37987 ft 478 kts 350°
2026-05-07 13:35 48.80015 -3.77257 37996 ft 478 kts 350°
2026-05-07 13:35 48.86564 -3.78603 37994 ft 478 kts 350°
2026-05-07 13:36 48.93160 -3.79962 37999 ft 478 kts 350°
2026-05-07 13:36 48.99780 -3.80985 37988 ft 480 kts 359°
2026-05-07 13:37 49.06466 -3.80581 38005 ft 481 kts
2026-05-07 13:37 49.13100 -3.80025 38003 ft 481 kts
2026-05-07 13:38 49.19785 -3.79554 37999 ft 481 kts
2026-05-07 13:38 49.26473 -3.79141 37639 ft 481 kts
2026-05-07 13:38 49.29790 -3.78941 37210 ft 473 kts
2026-05-07 13:39 49.33060 -3.78743 36755 ft 468 kts
2026-05-07 13:39 49.36289 -3.78546 36332 ft 462 kts
2026-05-07 13:39 49.39440 -3.78354 35926 ft 457 kts
2026-05-07 13:39 49.42599 -3.78160 35503 ft 452 kts
2026-05-07 13:40 49.45726 -3.77968 35079 ft 448 kts
2026-05-07 13:40 49.48828 -3.77777 34680 ft 444 kts
2026-05-07 13:40 49.51896 -3.77588 34268 ft 440 kts
2026-05-07 13:40 49.54949 -3.77399 33829 ft 437 kts
2026-05-07 13:41 49.57970 -3.77213 33362 ft 433 kts
2026-05-07 13:41 49.60970 -3.77027 32935 ft 429 kts
2026-05-07 13:41 49.63899 -3.76846 32531 ft 425 kts
2026-05-07 13:41 49.66836 -3.76664 32139 ft 421 kts
2026-05-07 13:42 49.69741 -3.76483 31743 ft 416 kts
2026-05-07 13:42 49.72621 -3.76225 31303 ft 413 kts
2026-05-07 13:42 49.75495 -3.75886 30919 ft 415 kts
2026-05-07 13:42 49.78380 -3.75518 30530 ft 417 kts
2026-05-07 13:43 49.81255 -3.75150 30130 ft 413 kts
2026-05-07 13:43 49.84108 -3.74790 29682 ft 409 kts
2026-05-07 13:43 49.86929 -3.74442 29272 ft 404 kts
2026-05-07 13:43 49.89678 -3.74108 28874 ft 400 kts
2026-05-07 13:44 49.92440 -3.73777 28501 ft 396 kts
2026-05-07 13:44 49.95174 -3.73450 28091 ft 392 kts
2026-05-07 13:44 49.97890 -3.73126 27715 ft 393 kts
2026-05-07 13:44 50.00627 -3.72801 27322 ft 396 kts
2026-05-07 13:45 50.03365 -3.72474 26919 ft 393 kts
2026-05-07 13:45 50.06074 -3.72150 26525 ft 389 kts
2026-05-07 13:45 50.08763 -3.71827 26146 ft 386 kts
2026-05-07 13:45 50.11433 -3.71507 25779 ft 398 kts
2026-05-07 13:46 50.14258 -3.71171 25400 ft 415 kts
2026-05-07 13:46 50.17198 -3.70819 24984 ft 431 kts
2026-05-07 13:46 50.20228 -3.70454 24542 ft 439 kts
2026-05-07 13:46 50.23280 -3.70085 24097 ft 444 kts
2026-05-07 13:47 50.26399 -3.69708 23640 ft 456 kts
2026-05-07 13:47 50.29595 -3.69321 23102 ft 465 kts
2026-05-07 13:47 50.32843 -3.68927 22592 ft 471 kts
2026-05-07 13:47 50.36123 -3.68529 22112 ft 476 kts
2026-05-07 13:48 50.39380 -3.68133 21618 ft 469 kts
2026-05-07 13:48 50.42568 -3.67732 21182 ft 454 kts
2026-05-07 13:48 50.45683 -3.67183 20638 ft 442 kts
2026-05-07 13:48 50.48692 -3.66575 19532 ft 432 kts
2026-05-07 13:49 50.51656 -3.66049 18404 ft 425 kts
2026-05-07 13:49 50.54575 -3.65677 17175 ft 418 kts
2026-05-07 13:49 50.57458 -3.65364 15997 ft 411 kts
2026-05-07 13:49 50.60283 -3.65067 14904 ft 404 kts
2026-05-07 13:50 50.63027 -3.64770 13973 ft 398 kts
2026-05-07 13:50 50.65710 -3.64466 13689 ft 373 kts
2026-05-07 13:50 50.68207 -3.64174 13500 ft 348 kts
2026-05-07 13:50 50.70550 -3.63895 13343 ft 327 kts
2026-05-07 13:51 50.72762 -3.63629 13087 ft 312 kts
2026-05-07 13:51 50.74921 -3.63368 12517 ft 310 kts
2026-05-07 13:51 50.77070 -3.63109 11901 ft 309 kts
2026-05-07 13:51 50.79166 -3.62855 11400 ft 306 kts
2026-05-07 13:52 50.81318 -3.62593 10804 ft 304 kts
2026-05-07 13:52 50.83428 -3.62336 10309 ft 301 kts
2026-05-07 13:52 50.85449 -3.62088 10134 ft 290 kts
2026-05-07 13:52 50.87454 -3.61843 9883 ft 291 kts
2026-05-07 13:53 50.89504 -3.61594 9578 ft 298 kts
2026-05-07 13:53 50.91568 -3.61341 9247 ft 296 kts
2026-05-07 13:53 50.93612 -3.61430 8923 ft 292 kts 347°
2026-05-07 13:53 50.95571 -3.62163 8652 ft 288 kts 344°
2026-05-07 13:54 50.97527 -3.62901 8379 ft 289 kts 345°
2026-05-07 13:54 50.99475 -3.63644 8114 ft 287 kts 345°
2026-05-07 13:54 51.01389 -3.64381 7843 ft 289 kts 345°
2026-05-07 13:54 51.03351 -3.65126 7559 ft 291 kts 345°
2026-05-07 13:55 51.05321 -3.65835 7279 ft 289 kts 346°
2026-05-07 13:55 51.07268 -3.66533 7009 ft 285 kts 346°
2026-05-07 13:55 51.09192 -3.67216 6723 ft 282 kts 349°
2026-05-07 13:55 51.11138 -3.67577 6441 ft 283 kts 354°
2026-05-07 13:56 51.13101 -3.67828 6154 ft 283 kts 354°
2026-05-07 13:56 51.15063 -3.68075 5881 ft 282 kts 354°
2026-05-07 13:56 51.16994 -3.68312 5600 ft 282 kts 354°
2026-05-07 13:56 51.18940 -3.68552 5312 ft 276 kts 355°
2026-05-07 13:57 51.20822 -3.68780 5067 ft 267 kts 355°
2026-05-07 13:57 51.22648 -3.69001 4830 ft 260 kts 354°
2026-05-07 13:57 51.24427 -3.69213 4567 ft 253 kts 355°
2026-05-07 13:57 51.26163 -3.69414 4335 ft 247 kts 357°
2026-05-07 13:58 51.27852 -3.69461 4135 ft 239 kts 359°
2026-05-07 13:58 51.29473 -3.69458 4044 ft 227 kts 359°
2026-05-07 13:58 51.31004 -3.69439 3943 ft 220 kts 360°
2026-05-07 13:58 51.32529 -3.69418 3875 ft 219 kts 360°
2026-05-07 13:59 51.34057 -3.69399 3806 ft 220 kts 360°
2026-05-07 13:59 51.35590 -3.69380 3726 ft 221 kts 360°
2026-05-07 13:59 51.37125 -3.69361 3657 ft 221 kts 360°
2026-05-07 13:59 51.38660 -3.69342 3600 ft 220 kts 360°
2026-05-07 14:00 51.40208 -3.69324 3546 ft 225 kts 359°
2026-05-07 14:00 51.41783 -3.69131 3413 ft 230 kts 18°
2026-05-07 14:00 51.43160 -3.67992 3315 ft 225 kts 31°
2026-05-07 14:00 51.44484 -3.66704 3129 ft 220 kts 43°
2026-05-07 14:01 51.45202 -3.64676 3008 ft 209 kts 85°
2026-05-07 14:01 51.45290 -3.62406 2849 ft 200 kts 90°
2026-05-07 14:01 51.45378 -3.60214 2671 ft 194 kts 89°
2026-05-07 14:01 51.45465 -3.58099 2491 ft 186 kts 89°
2026-05-07 14:02 51.45549 -3.56059 2320 ft 180 kts 90°
2026-05-07 14:02 51.45619 -3.54141 2198 ft 169 kts 94°
2026-05-07 14:02 51.45305 -3.52405 2193 ft 162 kts 119°
2026-05-07 14:02 51.44828 -3.50759 2178 ft 162 kts 119°
2026-05-07 14:03 51.44335 -3.49151 2108 ft 162 kts 120°
2026-05-07 14:03 51.43825 -3.47530 1920 ft 164 kts 120°
2026-05-07 14:03 51.43326 -3.45952 1676 ft 152 kts 120°
2026-05-07 14:03 51.42872 -3.44513 1485 ft 138 kts 120°
2026-05-07 14:04 51.42448 -3.43141 1292 ft 136 kts 120°
2026-05-07 14:04 51.42052 -3.41790 1097 ft 134 kts 118°
2026-05-07 14:04 51.41697 -3.40644 894 ft 129 kts 121°
2026-05-07 14:04 51.41281 -3.39379 745 ft 129 kts 120°
2026-05-07 14:05 51.40859 -3.38098 586 ft 128 kts 119°
2026-05-07 14:05 51.40443 -3.36808 495 ft 133 kts 119°
2026-05-07 14:05 51.40020 -3.35463 302 ft 134 kts 118°
2026-05-07 14:05 51.39631 -3.34228 223 ft 110 kts 116°
2026-05-07 14:06 51.39356 -3.33362 226 ft 65 kts 117°
2026-05-07 14:06 51.39213 -3.32911 221 ft 11 kts 112°
2026-05-07 14:06 51.39242 -3.32812 220 ft 13 kts 11°
2026-05-07 14:06 51.39320 -3.32881 221 ft 15 kts 315°
2026-05-07 14:07 51.39404 -3.33016 221 ft 20 kts 315°
2026-05-07 14:07 51.39492 -3.33205 221 ft 23 kts 296°
2026-05-07 14:07 51.39569 -3.33450 222 ft 26 kts 296°
2026-05-07 14:07 51.39610 -3.33584 223 ft 0 kts 297°
2026-05-07 14:08 51.39617 -3.33603 221 ft 5 kts 297°
2026-05-07 14:08 51.39643 -3.33688 222 ft 11 kts 296°
2026-05-07 14:08 51.39699 -3.33746 221 ft 7 kts 354°
2026-05-07 14:09 51.39726 -3.33750 221 ft 2 kts 354°
2026-05-07 14:09 51.39731 -3.33751 221 ft 1 kts 354°
2026-05-07 14:09 51.39732 -3.33751 221 ft 0 kts 354°